Location: Phoenix
(33.4480°N, 112.0730°W)
Time: 13:36:22
(UTC-07:00)

Daily predictions for brighter satellites

Satellite Brightness Start Highest point End
(mag) Time Altitude Azimuth Time Altitude Azimuth Time Altitude Azimuth
Cosmos 1850 Rocket 4.1 18:38:37 10° S 18:43:46 57° ESE 18:48:59 10° NNE
ALOS 3.4 18:46:12 10° ESE 18:49:52 23° ENE 18:53:32 10° NNE
Meteor 1-19 Rocket 4.4 18:46:21 10° N 18:51:56 52° E 18:57:33 10° SSE
Cosmos 2297 Rocket 3.9 18:51:52 10° ESE 18:53:29 11° E 18:55:06 10° E
Cosmos 1536 Rocket 3.7 18:49:05 10° N 18:53:35 85° W 18:58:03 10° S
Tiangong 2 3.4 18:55:40 10° W 18:58:10 23° SW 19:00:38 10° SSE
Okean 1-7 Rocket 4.3 18:54:10 10° NNE 18:58:13 32° E 19:02:12 10° SE
COSMOS 2428 3.4 18:54:21 10° N 18:59:29 34° ENE 19:04:36 10° SE
FREGAT/IRIS 3.0 19:01:00 10° SSE 19:03:55 42° ENE 19:06:51 10° N
H-2A R/B 4.2 19:02:22 10° SE 19:03:57 11° ESE 19:06:06 10° ESE
Meteor 2-4 Rocket 3.9 19:00:23 10° N 19:05:38 46° ENE 19:10:45 10° SSE
Abrixas rocket 4.0 19:03:08 10° W 19:06:03 27° NNW 19:09:00 10° NNE
Cosmos 2219 Rocket 3.4 19:02:59 10° N 19:07:11 21° ENE 19:10:46 12° ESE
OAO 3 Rocket 4.1 19:03:02 10° SW 19:07:31 34° SSE 19:11:10 14° E
Cosmos 2360 Rocket 2.3 19:01:59 10° NNW 19:07:41 88° WSW 19:13:20 10° SSE
Cosmos 2219 3.3 19:05:49 10° SSW 19:11:35 88° WNW 19:17:21 10° NNE
Meteor 1-13 Rocket 4.3 19:07:14 10° N 19:12:50 87° W 19:18:32 10° S
Cosmos 1536 2.7 19:09:11 10° S 19:13:10 82° E 19:17:09 10° N
Cosmos 1300 Rocket 4.3 19:08:53 10° SSW 19:13:13 58° W 19:17:36 10° N
Cosmos 2227 Rocket 3.1 19:09:04 10° SSE 19:13:37 25° ESE 19:18:11 10° NE
Atlas Centaur 2 3.9 19:07:44 10° SSW 19:13:59 27° SSE 19:18:26 14° ESE
Helios 1B rocket 3.8 19:11:12 10° NE 19:14:05 18° E 19:16:56 10° SE
Cosmos 1455 Rocket 4.2 19:18:15 10° SE 19:21:31 21° E 19:24:47 10° NE
BREEZE-M DEB (TANK) 3.6 19:19:41 10° NNW 19:22:22 29° NE 19:25:26 18° E
ATLAS CENTAUR R/B 1.6 19:23:55 10° SSW 19:29:47 68° SE 19:31:14 26° NE
Resurs 01 Rocket 1.7 19:31:13 10° SSE 19:35:29 53° ENE 19:39:47 10° N
BREEZE-M DEB (TANK) 3.0 19:36:18 10° NW 19:41:40 62° SW 19:43:02 26° SSE
Resurs 1-3 3.6 19:41:26 10° SSE 19:45:43 58° ENE 19:50:02 10° N
GPS 2-04 Rocket1 3.0 19:43:05 10° W 19:47:19 64° N 19:48:43 39° ENE
Longmarch 3A Rocket 3.0 19:45:57 10° SW 19:47:32 18° S 19:47:33 18° S
Cosmos 1610 Rocket 4.4 19:42:06 10° S 19:48:17 73° E 19:54:26 10° N
FENGYUN 3A 3.7 19:45:22 10° S 19:50:46 82° WSW 19:56:13 10° NNW
Genesis I 4.3 19:49:21 10° NW 19:53:06 44° WSW 19:56:49 10° S
Cosmos 2333 Rocket 2.6 19:48:14 10° N 19:53:42 43° ENE 19:55:05 37° E
OTV 4 0.8 19:51:05 10° W 19:53:54 55° NNW 19:53:54 55° NNW
Cosmos 1980 4.3 19:49:24 10° N 19:54:30 34° ENE 19:54:45 34° ENE
GEOS 3 Rocket 3.7 19:50:18 10° NNE 19:55:34 79° NW 20:00:51 10° SW
Cosmos 1892 Rocket 3.4 19:58:09 10° N 20:02:31 68° E 20:03:26 51° SE
Cosmos 1025 Rocket 3.8 20:00:13 10° NNW 20:04:29 52° W 20:08:45 10° S
SL-19 R/B 4.4 19:59:31 10° SSE 20:05:09 79° WSW 20:11:11 10° NNW
Cosmos 468 Rocket 3.9 20:02:49 10° N 20:08:03 65° ENE 20:09:06 52° SE
Spot 2 Rocket 3.7 20:03:06 10° S 20:08:07 71° WSW 20:13:11 10° NNW
Hubble Space Telescope 1.7 20:10:55 10° WSW 20:14:18 39° SSW 20:14:18 39° SSW
Skynet4D Del rocket 4.1 20:09:56 10° WSW 20:14:58 41° S 20:15:24 40° SSE
Cosmos 2082 3.6 20:10:01 10° SSW 20:15:43 84° ESE 20:20:08 18° NNE
Spot 1 4.4 20:17:28 53° N 20:17:28 53° N 20:20:40 10° NNW
USA 229 DEB 3.8 20:11:36 10° NNW 20:18:48 84° WSW 20:22:57 28° SSE
USA 229 3.8 20:11:42 10° NNW 20:18:54 85° WSW 20:22:59 29° SSE
Cosmos 1544 Rocket 4.2 20:17:20 10° SSW 20:21:34 54° W 20:25:49 10° N
H-2A R/B 4.1 20:21:22 17° SSW 20:23:43 36° W 20:27:12 10° NNW
Cosmos 405 Rocket 3.4 20:20:02 10° NNW 20:23:51 57° W 20:23:51 57° W
CZ-2D R/B 4.0 20:24:56 50° W 20:24:56 50° W 20:28:22 10° NNW
Envisat 4.4 20:27:13 26° NNE 20:27:13 26° NNE 20:29:33 10° N
ALOS 4.3 20:23:09 10° SSW 20:27:07 28° W 20:31:07 10° NW
Cosmos 1814 Rocket 4.2 20:24:03 10° NNW 20:28:10 56° N 20:28:10 56° N
NOSS 3-1 (A) 4.4 20:24:13 10° NNW 20:31:34 44° NE 20:31:36 44° NE
Cosmos 2297 Rocket 2.3 20:31:08 10° SSW 20:36:46 74° WNW 20:38:27 46° N
Cosmos 2237 Rocket 2.4 20:33:43 10° NNW 20:38:23 60° N 20:38:23 60° N
Nadezhda 3 Rocket 4.1 20:35:34 10° N 20:41:43 73° W 20:44:37 33° S
NOSS 0 Rocket 4.0 20:36:21 10° NNW 20:42:29 73° WSW 20:43:19 64° SSW
CZ-3 Stage 3 3.9 20:05:45 10° SW 20:43:39 52° S 20:45:34 47° SE
Cosmos 2341 Rocket 4.3 20:41:24 10° SSW 20:47:41 67° W 20:54:04 10° N
Helios 1B rocket 4.4 20:45:48 10° NNW 20:49:21 28° WNW 20:52:52 10° SW
NOSS 3-1 (C) 3.9 20:41:43 10° NNW 20:49:30 71° ENE 20:49:43 71° ENE
OAO 3 Rocket 4.4 20:45:54 10° WSW 20:49:00 39° WSW 20:49:00 39° WSW
Cosmos 2219 Rocket 3.1 20:46:01 10° NW 20:51:18 44° WSW 20:52:36 38° SW
Cosmos 2227 Rocket 3.6 20:52:16 10° SW 20:57:25 36° WNW 21:02:36 10° N
Atlas Centaur 2 3.4 20:56:16 10° WSW 21:01:06 38° SW 21:01:06 38° SW
SL-16 R/B 4.3 21:09:44 10° NNW 21:11:12 18° N 21:11:12 18° N
Cosmos 2333 Rocket 4.3 21:33:19 10° NW 21:37:09 22° W 21:37:09 22° W
